Regional Weather Roundup
Issued by NWS Midland/Odessa, TX

Home | Current Version | Previous Version | Text Only | Print | Product List | Glossary On
Versions: 1 2 3 4 5 6 7 8 9 10 11 12 13 14 15 16 17 18 19 20 21 22 23 24 25 26 27 28 29 30 31 32 33 34 35 36 37 38 39 40 41 42 43 44 45 46 47 48 49 50
000
ASUS44 KMAF 212010
RWRMAF
MIDLAND AREA WEATHER ROUNDUP
NATIONAL WEATHER SERVICE MIDLAND TX
300 PM CDT THU AUG 21 2014

...IN SOUTHWEST TEXAS AND SOUTHEAST NEW MEXICO...

CITY           SKY/WX    TMP DP  RH WIND       PRES   REMARKS
ALPINE         SUNNY     88  57  35 S14       30.17S
ANDREWS        FAIR      95  56  27 S10G16    30.00F
ARTESIA        MOSUNNY   95  48  20 S16       29.99S
BIG SPRING     SUNNY    100  62  29 S16       30.01F HX 101
CARLSBAD       MOSUNNY   95  48  20 SW8       29.97F
DRYDEN           N/A     99  66  33 VRB7      29.97F HX 103
FORT STOCKTON  SUNNY     95  56  26 S9G21     30.00F
GUAD PASS      SUNNY     88  48  25 SW16G25   30.18F
HOBBS          MOSUNNY   95  48  20 SW12      30.02F
MARFA          MOSUNNY   84  57  39 S14       30.17F
MIDLAND AIRPK  SUNNY     96  59  29 SW10G16   30.00F
MIDLAND INTL   SUNNY     95  63  34 S15       29.99F
ODESSA         SUNNY     92  60  34 S9        30.01F
PECOS          SUNNY     97  55  24 CALM      29.96S
PRESIDIO       FAIR      93  57  29 S7        30.00F
SEMINOLE       SUNNY     97  51  20 S9        30.00F
SNYDER         SUNNY     94  65  39 S15G21    29.99F
WINK           SUNNY     98  52  21 SW8       29.95F
$$
...OTHER STATIONS IN TEXAS...

CITY           SKY/WX    TMP DP  RH WIND       PRES   REMARKS
ABILENE        MOSUNNY   95  68  41 S22G29    29.98F
AMARILLO       PTSUNNY   96  58  27 SW15G22   29.98F
AUSTIN         MOSUNNY  101  63  28 S16G31    29.98F HX 103
BROWNSVILLE    MOSUNNY   96  74  48 S21G28    30.01F HX 107
CORPUS CHRISTI MOSUNNY   95  75  52 SE25G33   30.01F HX 107
DALLAS FTW     MOSUNNY   97  69  40 S17G25    29.97F HX 103
DEL RIO        MOSUNNY   95  70  44 SE15G21   29.94F HX 101
EL PASO        MOSUNNY   90  50  25 VRB3      30.05F
HOUSTON INT    MOSUNNY   97  70  41 S8G18     30.04F HX 103
LUBBOCK        MOSUNNY   95  63  34 S16G25    30.00F
SAN ANGELO     SUNNY     96  65  35 S12G21    29.98F
SAN ANTONIO    MOSUNNY   99  63  30 S16       30.00F HX 101
WACO           SUNNY     99  62  29 S20       29.99F HX 100
WICHITA FALLS  NOT AVBL
$$
...OTHER LOCATIONS IN NEW MEXICO...

CITY           SKY/WX    TMP DP  RH WIND       PRES   REMARKS
ALAMAGORDO     MOSUNNY   90  45  20 SW13      30.07F
ALBUQUERQUE    MOSUNNY   87  41  19 CALM      30.13F
CANNON AFB     SUNNY     93  50  23 SW9       30.03F
CLOVIS           N/A     93  52  24 SW8G17    30.05S
HOLLOMAN AFB   MOSUNNY   91  43  18 VRB6      30.04F
ROSWELL        SUNNY     93  53  25 NE7       29.99F
RUIDOSO        PTSUNNY   77  46  33 S6        30.26F
SANTA FE       MOSUNNY   83  36  18 MISG      30.18F
TRUTH OR CONSE PTSUNNY   86  42  21 S12       30.10F
TUCUMCARI      MOSUNNY   98  46  17 SW15      29.98F
$$


USA.gov is the U.S. government's official web portal to all federal, state and local government web resources and services.